{"data":{"norad_id":47230,"epoch":"2026-05-25T03:30:43.520256Z","epoch_age_seconds":65630,"freshness":"FRESH","line1":"1 47230U 20091D   26145.14633704 -.00000015  00000+0 -18085-3 0  9996","line2":"2 47230  82.4994 315.9824 0014195 242.3349 117.6290 12.42929065248193","mean_motion":12.42929065,"eccentricity":0.0014195,"inclination_deg":82.4994,"raan_deg":315.9824,"arg_perigee_deg":242.3349,"mean_anomaly_deg":117.629,"bstar":-0.00018085,"rev_number":24819,"period_min":115.855364602,"perigee_km":1483.0361078305,"apogee_km":1505.3857035348,"semimajor_km":7872.3479056826,"source":"CELESTRAK","updated_at":"2026-05-25T13:37:56.399480Z"}}